Regional Weather Roundup
Issued by NWS Newport/Morehead, NC

Current Version | Previous Version | Graphics & Text | Print | Product List | Glossary Off
Versions: 1 2 3 4 5 6 7 8 9 10 11 12 13 14 15 16 17 18 19 20 21 22 23 24 25 26 27 28 29 30 31 32 33 34 35 36 37 38 39 40

000
ASUS42 KMHX 161325
RWRMHX
WEATHER ROUNDUP FOR EASTERN NORTH CAROLINA
NATIONAL WEATHER SERVICE NEWPORT/MOREHEAD CITY NC
900 AM EDT WED AUG 16 2017

NOTE: "FAIR" INDICATES FEW OR NO CLOUDS BELOW 12,000 FEET
WITH NO SIGNIFICANT WEATHER AND/OR OBSTRUCTIONS TO VISIBILITY

NCZ015>017-031-032-045>047-102-103-161400-
NORTH COAST

CITY           SKY/WX    TMP DP  RH WIND       PRES   REMARKS
EDENTON        CLOUDY    79  76  89 CALM      30.00R
ELIZABETH CITY CLOUDY    80  77  90 N9        29.98R
KITTY HAWK     MOSUNNY   79  76  91 CALM      29.97R
MANTEO         SUNNY     80  75  83 NE7       29.98R

$$

NCZ045>047-081-094-103-104-161400-
CENTRAL COAST

CITY           SKY/WX    TMP DP  RH WIND       PRES   REMARKS
FRISCO         PTSUNNY   82  78  88 NE8       29.97R

$$

NCZ095-097-098-100-101-161400-
SOUTHERN COAST

CITY           SKY/WX    TMP DP  RH WIND       PRES   REMARKS
BEAUFORT       CLOUDY    78  78 100 N7        29.98R
CEDAR ISLAND   NOT AVBL
JACKSONVILLE   PTSUNNY   79  77  94 NW7       29.99R
PINEY ISLAND   CLOUDY   N/A N/A N/A N7        29.98R
WILMINGTON     SUNNY     82  75  79 N7        29.98R


$$

NCZ011>013-027>030-043-044-078>080-089-090>093-098-161400-
COASTAL PLAIN

CITY           SKY/WX    TMP DP  RH WIND       PRES   REMARKS
AHOSKIE          N/A     76  73  91 N6        30.02R
CLINTON        SUNNY     81  77  87 N3        30.01R
ELIZABETHTOWN  NOT AVBL
GOLDSBORO      MOSUNNY   79  81 100 N6        29.99R
GREENVILLE     CLOUDY    77  77 100 N7        30.03R FOG
HAVELOCK       CLOUDY    78  75  90 N9        30.00R FOG
KENANSVILLE    MOSUNNY   79  75  89 N6        30.01R
KINSTON        CLOUDY    75  75 100 N7        30.01R FOG
NEW BERN       CLOUDY    76  76 100 N5        30.00R FOG
RICHLANDS      MOSUNNY   77  75  93 VRB3      30.00R
ROCKY MOUNT    CLOUDY    75  75 100 N9        30.02R
WASHINGTON     CLOUDY    77  75  95 N7        30.01R
WHITEVILLE     SUNNY     81  77  86 NW3       30.00R

$$

AMZ130-135-150-152-154-156-158-170-250-252-270-ANZ085-086-088-633-658-670-161400-
MARINE OBSERVATIONS

STATION/POSITION TIME  TEMP    WIND        PRES    WAVE   SWELL
                       AIR SEA DIR/SP/G            HT/PER HT/PER
                 (UTC) (F)     (DEG/KT/KT) (MB)    (FT/S) (FT/S)
CHESAPEAKE LIGHT NOT AVBL
64 E VA BEACH    1250   77 78   10/  8/ 10 1015.0    5/10   5/10
DUCK             1300   78 78   10/  8/ 10 1014.7
2 E DUCK         1230      78                N/A     3/10   2/12
OREGON INLET     1300   79 81  360/  8/ 10 1014.8
13E OREGON INLT  1248      79                N/A     3/ 9   3/ 9
HATTERAS CG      1300   81 83   30/  8/ 12 1014.7
DIAMOND BUOY     1250   80 83   20/ 12/ 14 1014.4    3/ 9   3/ 9
CAPE LOOKOUT     1300   79     360/ 10/ 12 1014.7
BEAUFORT LAB     1300   78 81   10/  9/ 11 1014.6
30 SE NEW RVR IN 1308   80 83  360/ 10/ 14 1015.1
30 SE NEW RVR IN 1243      83                N/A     3/ 5
27 SE WRIGHTSVLE 1308   82 83   20/  8/ 12 1015.0
5 SE WRIGHTSVLE  1308   80 83   20/ 12/ 16 1015.3
225 S CAPE HAT   1250   84 83  240/ 14/ 16 1016.4    5/ 6   2/ 8
41 SE CHARLESTON 1310   83 83  280/ 10/ 12 1016.0

$$




USA.gov is the U.S. government's official web portal to all federal, state and local government web resources and services.